• Em Portugal
  • Lista de países
  • Para 7 dias
  • Temperatura da água
  • Mapas de satélite
  • Mapa do tempo
  • Widgets de tempo
  • user-avatar
    Iniciar Sessão

    Previsão horária em Swietoszow

    Hoje, 16 Julho, Segunda-feira

    Tempo Temperatura Precipitação Vento Pressão Humidade
    00:00 +18°C° 0 mm 1 m/s 749 mmHg 77%
    01:00 +16°C° 0 mm 1 m/s 749 mmHg 81%
    02:00 +16°C° 0 mm 1 m/s 749 mmHg 84%
    03:00 +16°C° 0 mm 1 m/s 749 mmHg 86%
    04:00 +15°C° 0 mm 1 m/s 749 mmHg 89%
    05:00 +18°C° 0 mm 1 m/s 749 mmHg 83%
    06:00 +20°C° 0 mm 1 m/s 749 mmHg 76%
    07:00 +22°C° 0 mm 1 m/s 749 mmHg 69%
    08:00 +23°C° 0 mm 1 m/s 749 mmHg 62%
    09:00 +25°C° 0 mm 2 m/s 748 mmHg 55%
    10:00 +26°C° 0 mm 2 m/s 748 mmHg 48%
    11:00 +28°C° 0 mm 2 m/s 748 mmHg 45%
    12:00 +28°C° 0 mm 2 m/s 747 mmHg 42%
    13:00 +29°C° 0 mm 2 m/s 747 mmHg 38%
    14:00 +29°C° 0 mm 2 m/s 747 mmHg 39%
    15:00 +29°C° 0 mm 2 m/s 747 mmHg 39%
    16:00 +29°C° 0 mm 2 m/s 746 mmHg 39%
    17:00 +28°C° 0 mm 2 m/s 746 mmHg 44%
    18:00 +27°C° 0 mm 2 m/s 746 mmHg 49%
    19:00 +26°C° 0 mm 2 m/s 746 mmHg 54%
    20:00 +24°C° 0,3 mm 2 m/s 746 mmHg 62%
    21:00 +21°C° 0,3 mm 2 m/s 746 mmHg 69%
    22:00 +20°C° 0,3 mm 2 m/s 746 mmHg 76%
    23:00 +19°C° 0,3 mm 2 m/s 746 mmHg 81%

    Amanhã, 17 Julho, Terça-feira

    Tempo Temperatura Precipitação Vento Pressão Humidade
    00:00 +19°C° 0,3 mm 1 m/s 746 mmHg 85%
    01:00 +19°C° 0,3 mm 1 m/s 746 mmHg 89%
    02:00 +19°C° 0 mm 1 m/s 746 mmHg 91%
    03:00 +17°C° 0 mm 2 m/s 745 mmHg 92%
    04:00 +17°C° 0 mm 2 m/s 745 mmHg 94%
    05:00 +18°C° 0,1 mm 2 m/s 745 mmHg 90%
    06:00 +19°C° 0,1 mm 3 m/s 745 mmHg 87%
    07:00 +19°C° 0,1 mm 3 m/s 745 mmHg 84%
    08:00 +20°C° 0,4 mm 4 m/s 745 mmHg 82%
    09:00 +20°C° 0,4 mm 4 m/s 745 mmHg 80%
    10:00 +20°C° 0,4 mm 4 m/s 746 mmHg 79%
    11:00 +20°C° 0,8 mm 5 m/s 745 mmHg 80%
    12:00 +20°C° 0,8 mm 5 m/s 745 mmHg 81%
    13:00 +19°C° 0,8 mm 5 m/s 745 mmHg 83%
    14:00 +19°C° 0,5 mm 5 m/s 745 mmHg 84%
    15:00 +19°C° 0,5 mm 5 m/s 745 mmHg 84%
    16:00 +19°C° 0,5 mm 5 m/s 745 mmHg 85%
    17:00 +19°C° 0,2 mm 4 m/s 745 mmHg 86%
    18:00 +18°C° 0,2 mm 4 m/s 745 mmHg 88%
    19:00 +18°C° 0,2 mm 4 m/s 745 mmHg 89%
    20:00 +18°C° 0 mm 3 m/s 745 mmHg 91%
    21:00 +17°C° 0 mm 3 m/s 745 mmHg 92%
    22:00 +17°C° 0 mm 3 m/s 745 mmHg 94%
    23:00 +17°C° 0 mm 3 m/s 745 mmHg 94%

    Depois de amanhã, 18 Julho, Quarta-feira

    Tempo Temperatura Precipitação Vento Pressão Humidade
    00:00 +17°C° 0 mm 4 m/s 745 mmHg 94%
    01:00 +17°C° 0 mm 4 m/s 745 mmHg 94%
    02:00 +17°C° 0 mm 4 m/s 745 mmHg 94%
    03:00 +17°C° 0 mm 4 m/s 745 mmHg 93%
    04:00 +17°C° 0 mm 4 m/s 745 mmHg 93%
    05:00 +17°C° 0 mm 5 m/s 745 mmHg 89%
    06:00 +17°C° 0 mm 5 m/s 746 mmHg 86%
    07:00 +19°C° 0 mm 5 m/s 746 mmHg 82%
    08:00 +21°C° 0 mm 6 m/s 746 mmHg 74%
    09:00 +22°C° 0 mm 6 m/s 746 mmHg 66%
    10:00 +24°C° 0 mm 6 m/s 746 mmHg 58%
    11:00 +26°C° 0 mm 6 m/s 746 mmHg 55%
    12:00 +27°C° 0 mm 6 m/s 746 mmHg 52%
    13:00 +27°C° 0 mm 6 m/s 746 mmHg 48%
    14:00 +27°C° 0 mm 6 m/s 746 mmHg 49%
    15:00 +27°C° 0 mm 6 m/s 746 mmHg 50%
    16:00 +27°C° 0 mm 5 m/s 746 mmHg 51%
    17:00 +26°C° 0 mm 5 m/s 747 mmHg 56%
    18:00 +25°C° 0 mm 4 m/s 747 mmHg 61%
    19:00 +24°C° 0 mm 3 m/s 747 mmHg 67%
    20:00 +22°C° 0 mm 3 m/s 747 mmHg 71%
    21:00 +21°C° 0 mm 2 m/s 747 mmHg 76%
    22:00 +20°C° 0 mm 2 m/s 748 mmHg 80%
    23:00 +19°C° 0 mm 2 m/s 748 mmHg 83%

    19 Julho, Quinta-feira

    Tempo Temperatura Precipitação Vento Pressão Humidade
    00:00 +18°C° 0 mm 2 m/s 748 mmHg 86%
    01:00 +18°C° 0 mm 2 m/s 748 mmHg 89%
    02:00 +18°C° 0 mm 3 m/s 748 mmHg 89%
    03:00 +17°C° 0 mm 3 m/s 748 mmHg 90%
    04:00 +17°C° 0 mm 3 m/s 748 mmHg 91%
    05:00 +18°C° 0 mm 3 m/s 748 mmHg 87%
    06:00 +19°C° 0 mm 4 m/s 748 mmHg 83%
    07:00 +19°C° 0 mm 4 m/s 748 mmHg 80%
    08:00 +21°C° 0 mm 4 m/s 748 mmHg 73%
    09:00 +22°C° 0 mm 5 m/s 748 mmHg 67%
    10:00 +23°C° 0 mm 5 m/s 749 mmHg 61%
    11:00 +25°C° 0,1 mm 5 m/s 748 mmHg 58%
    12:00 +26°C° 0,1 mm 5 m/s 748 mmHg 54%
    13:00 +27°C° 0,1 mm 5 m/s 748 mmHg 51%
    14:00 +27°C° 0,1 mm 4 m/s 748 mmHg 52%
    15:00 +27°C° 0,1 mm 4 m/s 748 mmHg 53%
    16:00 +26°C° 0,1 mm 4 m/s 748 mmHg 54%
    17:00 +25°C° 0 mm 4 m/s 748 mmHg 59%
    18:00 +25°C° 0 mm 3 m/s 748 mmHg 63%
    19:00 +24°C° 0 mm 2 m/s 748 mmHg 67%
    20:00 +21°C° 0 mm 2 m/s 748 mmHg 71%
    21:00 +20°C° 0 mm 2 m/s 749 mmHg 74%
    22:00 +18°C° 0 mm 2 m/s 749 mmHg 78%
    23:00 +18°C° 0 mm 1 m/s 749 mmHg 79%

    20 Julho, Sexta-feira

    Tempo Temperatura Precipitação Vento Pressão Humidade
    00:00 +18°C° 0 mm 1 m/s 749 mmHg 80%
    01:00 +16°C° 0 mm 1 m/s 749 mmHg 81%
    02:00 +15°C° 0 mm 1 m/s 749 mmHg 82%
    03:00 +15°C° 0 mm 1 m/s 748 mmHg 83%
    04:00 +14°C° 0 mm 2 m/s 748 mmHg 85%
    05:00 +16°C° 0 mm 2 m/s 748 mmHg 78%
    06:00 +17°C° 0 mm 2 m/s 748 mmHg 72%
    07:00 +19°C° 0 mm 2 m/s 748 mmHg 66%
    08:00 +21°C° 0 mm 2 m/s 748 mmHg 58%
    09:00 +23°C° 0 mm 2 m/s 748 mmHg 50%
    10:00 +25°C° 0 mm 3 m/s 748 mmHg 42%
    11:00 +26°C° 0 mm 2 m/s 748 mmHg 39%
    12:00 +27°C° 0 mm 2 m/s 748 mmHg 36%
    13:00 +28°C° 0 mm 2 m/s 748 mmHg 33%
    14:00 +28°C° 0 mm 2 m/s 747 mmHg 33%
    15:00 +28°C° 0 mm 2 m/s 747 mmHg 33%
    16:00 +28°C° 0 mm 2 m/s 747 mmHg 33%
    17:00 +27°C° 0 mm 2 m/s 747 mmHg 38%
    18:00 +26°C° 0 mm 2 m/s 746 mmHg 44%
    19:00 +25°C° 0 mm 1 m/s 746 mmHg 50%
    20:00 +23°C° 0 mm 1 m/s 746 mmHg 54%
    21:00 +21°C° 0 mm 1 m/s 747 mmHg 58%
    22:00 +19°C° 0 mm 1 m/s 747 mmHg 62%
    23:00 +19°C° 0 mm 1 m/s 747 mmHg 66%

    21 Julho, Sábado

    Tempo Temperatura Precipitação Vento Pressão Humidade
    00:00 +18°C° 0 mm 1 m/s 747 mmHg 70%
    01:00 +18°C° 0 mm 1 m/s 747 mmHg 74%
    02:00 +16°C° 0 mm 1 m/s 746 mmHg 75%
    03:00 +16°C° 0 mm 1 m/s 746 mmHg 77%
    04:00 +16°C° 0 mm 1 m/s 746 mmHg 79%
    05:00 +18°C° 0 mm 1 m/s 746 mmHg 73%
    06:00 +20°C° 0 mm 1 m/s 746 mmHg 68%
    07:00 +22°C° 0 mm 1 m/s 746 mmHg 62%
    08:00 +24°C° 0 mm 1 m/s 746 mmHg 56%
    09:00 +26°C° 0 mm 1 m/s 746 mmHg 50%
    10:00 +28°C° 0 mm 1 m/s 746 mmHg 43%
    11:00 +28°C° 0 mm 1 m/s 746 mmHg 42%
    12:00 +28°C° 0 mm 1 m/s 746 mmHg 40%
    13:00 +28°C° 0 mm 1 m/s 745 mmHg 39%
    14:00 +28°C° 0 mm 1 m/s 745 mmHg 39%
    15:00 +28°C° 0 mm 1 m/s 745 mmHg 40%
    16:00 +28°C° 0 mm 2 m/s 745 mmHg 41%
    17:00 +27°C° 0 mm 1 m/s 745 mmHg 45%
    18:00 +26°C° 0 mm 1 m/s 745 mmHg 50%
    19:00 +25°C° 0 mm 1 m/s 745 mmHg 54%
    20:00 +23°C° 0 mm 1 m/s 745 mmHg 58%
    21:00 +22°C° 0 mm 1 m/s 745 mmHg 62%
    22:00 +19°C° 0 mm 2 m/s 745 mmHg 66%
    23:00 +20°C° 0 mm 1 m/s 745 mmHg 70%
    Mostrar mais